📊 Raw Sensor Data
Showing records 45751 to 45775 of 85,058 total
| ID | Distance (ft) | Battery V | Battery A | Int Temp (°F) | Int Humid (%) | Ext Temp (°F) | Solar V | RSSI | SNR | Time Stamp |
|---|---|---|---|---|---|---|---|---|---|---|
| 39320 | -- | 3.96 | -5 | 66 | 47 | 66 | 0.00 | -73 | 8 | 04/30/2025 09:01 PM |
| 39319 | -- | 3.96 | -5 | 67 | 48 | 67 | 0.10 | -73 | 8 | 04/30/2025 08:45 PM |
| 39318 | -- | 4.02 | -5 | 68 | 49 | 68 | 0.00 | -73 | 8 | 04/30/2025 08:30 PM |
| 39317 | -- | 3.97 | -5 | 69 | 51 | 69 | 0.30 | -73 | 8 | 04/30/2025 08:15 PM |
| 39316 | -- | 3.96 | -9 | 71 | 52 | 69 | 1.70 | -74 | 8 | 04/30/2025 08:00 PM |
| 39315 | -- | 3.97 | 0 | 75 | 53 | 71 | 4.50 | -71 | 8 | 04/30/2025 07:45 PM |
| 39314 | -- | 4.05 | 0 | 80 | 51 | 75 | 4.50 | -73 | 8 | 04/30/2025 07:30 PM |
| 39313 | -- | 4.06 | 10 | 83 | 50 | 78 | 4.50 | -73 | 8 | 04/30/2025 07:15 PM |
| 39312 | -- | 4.07 | 0 | 86 | 50 | 80 | 4.50 | -73 | 8 | 04/30/2025 07:00 PM |
| 39311 | -- | 4.05 | 20 | 89 | 49 | 82 | 4.60 | -73 | 8 | 04/30/2025 06:45 PM |
| 39310 | -- | 4.01 | 0 | 90 | 48 | 84 | 5.10 | -74 | 9 | 04/30/2025 06:30 PM |
| 39309 | -- | 4.01 | 0 | 93 | 47 | 85 | 5.10 | -73 | 9 | 04/30/2025 06:15 PM |
| 39308 | -- | 4.01 | 0 | 93 | 47 | 85 | 5.10 | -74 | 9 | 04/30/2025 06:00 PM |
| 39307 | -- | 4.01 | 0 | 95 | 46 | 86 | 5.10 | -72 | 8 | 04/30/2025 05:45 PM |
| 39306 | -- | 4.01 | 0 | 96 | 45 | 88 | 5.10 | -73 | 9 | 04/30/2025 05:30 PM |
| 39305 | -- | 4.01 | 0 | 98 | 43 | 86 | 5.10 | -73 | 8 | 04/30/2025 05:15 PM |
| 39304 | -- | 4.01 | 0 | 97 | 43 | 87 | 5.10 | -73 | 8 | 04/30/2025 05:00 PM |
| 39303 | -- | 4.14 | 0 | 96 | 43 | 87 | 5.10 | -73 | 8 | 04/30/2025 04:45 PM |
| 39302 | -- | 4.04 | 0 | 96 | 43 | 86 | 5.10 | -73 | 8 | 04/30/2025 04:30 PM |
| 39301 | -- | 4.14 | 0 | 96 | 42 | 88 | 5.10 | -73 | 8 | 04/30/2025 04:15 PM |
| 39300 | -- | 4.01 | 0 | 96 | 42 | 85 | 5.10 | -73 | 9 | 04/30/2025 04:00 PM |
| 39299 | -- | 4.03 | 0 | 95 | 42 | 86 | 5.10 | -72 | 9 | 04/30/2025 03:45 PM |
| 39298 | -- | 4.01 | 0 | 95 | 41 | 86 | 5.10 | -73 | 8 | 04/30/2025 03:30 PM |
| 39297 | -- | 4.01 | 0 | 94 | 41 | 85 | 5.10 | -73 | 9 | 04/30/2025 03:15 PM |
| 39296 | -- | 4.01 | 0 | 95 | 40 | 86 | 5.10 | -75 | 8 | 04/30/2025 03:00 PM |